Stations météo

réclame
Mon MeteoGroup
Junsele A, Suède (2243): Température de l'air & dewpoint: 13.10.2018 11:00:00 - 19.10.2018 11:00:00 (CEST)Junsele A, Suède (2243): Vitesse du vent & gusts: 13.10.2018 11:00:00 - 19.10.2018 11:00:00 (CEST)Junsele A, Suède (2243): Direction du vent: 13.10.2018 11:00:00 - 19.10.2018 11:00:00 (CEST)Junsele A, Suède (2243): reduced air pressure: 13.10.2018 11:00:00 - 19.10.2018 11:00:00 (CEST)Junsele A, Suède (2243): visibility: 13.10.2018 11:00:00 - 19.10.2018 11:00:00 (CEST)Junsele A, Suède (2243): Quantités de précipitations: 13.10.2018 11:00:00 - 19.10.2018 11:00:00 (CEST)
Date & Time tt [°C] td [°C] ff [km/h] ff [knt] fx [km/h] fx [knt] dd ppp [hPa] vv [km] rr [mm]
19.10.2018 11:00:00 7,1 2,4 10 6 24 13 W 1018,3 43 0,0
19.10.2018 10:00:00 5,3 1,8 7 4 14 8 SW 1018,5 45 0,0
19.10.2018 09:00:00 2,2 0,1 3 1 17 9 S 1018,5 39 0,0
19.10.2018 08:00:00 3,6 1,0 8 4 18 10 WSW 1017,9 50 0,0
19.10.2018 07:00:00 3,5 1,1 9 5 29 15 W 1017,5 50 0,0
19.10.2018 06:00:00 3,7 1,1 11 6 22 12 W 1017,0 50 0,0
19.10.2018 05:00:00 3,4 1,1 9 5 20 11 W 1016,9 50 0,0
19.10.2018 04:00:00 3,7 1,4 9 5 19 10 WSW 1016,5 50 0,0
19.10.2018 03:00:00 3,9 1,5 8 4 16 9 SW 1016,5 50 0,0
19.10.2018 02:00:00 4,3 1,5 7 4 16 9 WSW 1016,1 50 0,0
19.10.2018 01:00:00 4,6 1,4 6 4 18 10 W 1015,8 50 0,0
19.10.2018 00:00:00 4,9 1,1 7 4 21 11 W 1015,1 50 0,0
18.10.2018 23:00:00 4,8 1,1 10 6 28 15 W 1014,6 50 0,0
18.10.2018 22:00:00 5,2 1,3 8 4 28 15 W 1014,7 50 0,0
18.10.2018 21:00:00 5,6 1,7 12 6 29 16 W 1014,3 50 0,0
18.10.2018 20:00:00 5,4 1,7 11 6 24 13 W 1014,0 50 0,0
18.10.2018 19:00:00 6,4 1,9 11 6 29 15 W 1013,5 50 0,0
18.10.2018 18:00:00 7,3 1,8 9 5 24 13 W 1013,4 50 0,0
18.10.2018 17:00:00 7,8 2,0 13 7 35 19 W 1013,0 50 0,0
18.10.2018 16:00:00 8,2 1,6 16 9 37 20 W 1012,5 50 0,0
18.10.2018 15:00:00 8,3 1,7 13 7 35 19 W 1012,3 50 0,0
18.10.2018 14:00:00 9,1 1,5 13 7 28 15 WSW 1012,2 45 0,0
18.10.2018 13:00:00 8,5 1,2 12 7 31 17 WSW 1012,1 44 0,0
18.10.2018 12:00:00 8,2 1,8 13 7 30 16 W 1012,3 46 0,0
18.10.2018 11:00:00 6,5 4,3 9 5 23 13 W 1012,6 45 0,0
18.10.2018 10:00:00 3,7 3,7 6 3 11 6 W 1012,8 41 0,0
18.10.2018 09:00:00 1,7 1,7 3 2 10 5 W 1012,8 0,8 0,0
18.10.2018 08:00:00 1,5 1,5 5 3 9 5 W 1012,4 6 0,0
18.10.2018 07:00:00 1,2 1,2 1 1 5 3 S 1012,2 2,4 0,0
18.10.2018 06:00:00 2,0 2,0 2 1 5 3 E 1012,3 20 0,0
18.10.2018 05:00:00 1,7 1,7 4 2 6 4 SSE 1012,0 4,7 0,0
18.10.2018 04:00:00 1,7 1,7 3 2 7 4 ESE 1012,5 0,9 0,0
18.10.2018 03:00:00 2,3 2,3 3 2 7 4 SE 1012,1 3,8 0,0
18.10.2018 02:00:00 3,6 3,6 1 1 8 4 NW 1011,9 0,3 0,0
18.10.2018 01:00:00 3,7 3,7 3 2 9 5 WSW 1011,8 0,2 0,0
18.10.2018 00:00:00 3,2 3,2 2 1 7 4 NW 1011,1 2,2 0,0
17.10.2018 23:00:00 2,5 2,5 1 1 3 1 ESE 1010,8 0,9 0,0
17.10.2018 22:00:00 3,6 3,6 1 0 4 2 WSW 1010,4 7 0,0
17.10.2018 21:00:00 3,6 3,6 2 1 6 3 NNE 1010,1 1,0 0,0
17.10.2018 20:00:00 4,4 4,4 4 2 6 3 ESE 1009,5 5 0,0
17.10.2018 19:00:00 5,8 5,6 3 2 7 4 ESE 1009,3 50 0,0
17.10.2018 18:00:00 7,0 6,5 3 1 7 4 E 1008,9 50 0,0
17.10.2018 17:00:00 9,6 7,7 1 1 10 6 ESE 1008,7 50 0,0
17.10.2018 16:00:00 10,1 7,7 5 3 13 7 SSE 1008,8 50 0,0
17.10.2018 15:00:00 9,6 7,2 7 4 17 9 S 1009,2 50 0,0
17.10.2018 14:00:00 9,3 7,1 8 4 16 9 S 1009,5 50 0,0
17.10.2018 13:00:00 8,4 6,7 6 3 16 9 S 1009,9 50 0,0
17.10.2018 12:00:00 7,4 6,3 5 3 15 8 S 1010,3 50 0,0
17.10.2018 11:00:00 7,0 6,1 6 3 18 10 SSE 1011,0 50 0,0
17.10.2018 10:00:00 6,7 5,9 6 3 24 13 SSE 1011,1 35 0,0
17.10.2018 09:00:00 6,5 5,8 9 5 19 11 S 1011,2 50 0,0
17.10.2018 08:00:00 6,1 5,4 6 3 23 12 SSE 1011,7 50 0,0
17.10.2018 07:00:00 5,9 5,3 6 4 16 9 SSE 1012,1 50 0,0
17.10.2018 06:00:00 5,2 4,6 7 4 20 11 SE 1013,0 50 0,0
17.10.2018 05:00:00 4,7 4,0 8 5 24 13 SE 1013,6 50 0,0
17.10.2018 04:00:00 4,8 4,1 9 5 19 11 SE 1014,3 50 0,0
17.10.2018 03:00:00 4,4 3,8 7 4 17 9 SSE 1015,1 50 0,0
17.10.2018 02:00:00 3,3 3,0 8 5 15 8 SE 1015,5 50 0,0
17.10.2018 01:00:00 2,5 2,5 6 4 12 7 ESE 1015,8 50 0,0
17.10.2018 00:00:00 1,7 1,7 4 2 7 4 ESE 1017,4 48 0,0
16.10.2018 23:00:00 1,2 1,2 3 2 9 5 E 1017,9 50 0,0
16.10.2018 22:00:00 2,0 2,0 3 1 8 4 E 1018,0 20 0,0
16.10.2018 21:00:00 2,1 2,1 4 2 8 5 ESE 1018,7 39 0,0
16.10.2018 20:00:00 2,6 2,6 4 2 8 4 ESE 1018,9 49 0,0
16.10.2018 19:00:00 3,7 3,7 4 2 8 4 SE 1019,1 43 0,0
16.10.2018 18:00:00 3,6 3,4 3 2 6 3 ESE 1019,1 37 0,0
16.10.2018 17:00:00 6,0 4,6 2 1 8 4 SSE 1018,7 46 0,0
16.10.2018 16:00:00 9,2 4,9 7 4 11 6 SW 1018,9 47 0,0
16.10.2018 15:00:00 8,6 5,0 4 2 9 5 SW 1018,5 50 0,0
16.10.2018 14:00:00 8,5 5,6 4 2 11 6 SW 1018,4 48 0,0
16.10.2018 13:00:00 6,7 4,4 7 4 14 8 W 1018,9 49 0,0
16.10.2018 12:00:00 6,0 3,7 5 3 14 7 WSW 1018,9 50 0,0
16.10.2018 11:00:00 4,4 4,2 3 1 8 5 W 1019,2 50 0,0
16.10.2018 10:00:00 2,9 2,9 3 1 6 4 SSW 1018,3 50 0,0
16.10.2018 09:00:00 -0,3 -0,3 2 1 6 3 WSW 1018,2 0,5 0,0
16.10.2018 08:00:00 -0,5 -0,5 1 1 8 4 SSE 1017,3 0,6 0,0
16.10.2018 07:00:00 0,0 0,0 3 1 8 5 S 1016,5 0,8 0,0
16.10.2018 06:00:00 1,5 1,5 3 1 10 5 W 1015,9 1,3 0,0
16.10.2018 05:00:00 3,0 3,0 2 1 6 3 ENE 1015,1 0,3 0,0
16.10.2018 04:00:00 3,4 3,4 1 1 9 5 E 1014,7 0,6 0,0
16.10.2018 03:00:00 4,3 4,3 3 1 5 3 WSW 1014,1 2,8 0,0
16.10.2018 02:00:00 5,0 5,0 3 1 7 4 SW 1013,5 2,9 0,0
16.10.2018 01:00:00 5,7 5,7 4 2 8 4 W 1013,5 3,1 0,1
16.10.2018 00:00:00 5,7 5,7 3 2 9 5 W 1013,0 50 0,0
15.10.2018 23:00:00 5,7 5,7 3 1 5 3 W 1012,7 42 0,0
15.10.2018 22:00:00 5,9 5,9 3 2 6 3 WSW 1012,8 7 0,0
15.10.2018 21:00:00 6,0 6,0 2 1 4 2 W 1012,5 29 0,0
15.10.2018 20:00:00 6,1 6,1 2 1 4 2 NW 1012,5 8 0,5
15.10.2018 19:00:00 6,2 6,2 1 1 4 2 W 1012,9 11 0,6
15.10.2018 18:00:00 6,3 6,2 1 1 4 2 WNW 1012,8 16 0,4
15.10.2018 17:00:00 6,6 6,2 1 1 6 4 NNW 1012,7 12 0,7
15.10.2018 16:00:00 7,0 6,7 3 1 5 3 W 1012,6 10 0,5
15.10.2018 15:00:00 7,3 6,7 1 0 5 3 WNW 1012,6 11 0,6
15.10.2018 14:00:00 7,6 6,4 1 0 9 5 N 1012,8 13 0,5
15.10.2018 13:00:00 8,4 4,6 3 2 14 8 NW 1012,2 21 0,0
15.10.2018 12:00:00 8,6 4,4 4 2 16 9 NW 1012,3 14 0,0
15.10.2018 11:00:00 8,3 4,3 6 3 21 11 WNW 1012,1 50 0,0
15.10.2018 10:00:00 8,4 4,8 5 3 18 10 NW 1011,1 50 0,0
15.10.2018 09:00:00 8,4 5,6 8 4 19 10 W 1010,8 50 0,0
15.10.2018 08:00:00 8,1 5,6 6 4 12 6 W 1009,6 50 0,0
15.10.2018 07:00:00 8,7 6,5 6 3 16 9 W 1008,9 50 0,0
15.10.2018 06:00:00 8,8 7,1 4 2 41 22 NNW 1007,8 50 0,0
15.10.2018 05:00:00 12,5 8,0 11 6 24 13 WSW 1005,7 23 0,0
15.10.2018 04:00:00 11,8 8,1 7 4 29 15 S 1004,6 23 0,0
15.10.2018 03:00:00 12,9 8,2 11 6 25 13 SSW 1004,4 27 0,0
15.10.2018 02:00:00 12,3 7,6 9 5 21 11 S 1004,2 32 0,0
15.10.2018 01:00:00 13,3 7,5 6 3 27 15 S 1004,3 36 0,0
15.10.2018 00:00:00 14,2 7,7 11 6 29 16 S 1004,3 41 0,0
14.10.2018 23:00:00 15,4 7,7 12 6 30 16 S 1004,8 47 0,0
14.10.2018 22:00:00 16,0 8,0 11 6 29 16 S 1005,0 50 0,0
14.10.2018 21:00:00 16,6 8,1 12 7 27 15 S 1005,0 46 0,0
14.10.2018 20:00:00 17,3 7,6 13 7 38 21 S 1005,1 50 0,0
14.10.2018 19:00:00 17,3 9,2 11 6 23 13 S 1005,2 50 0,0
14.10.2018 18:00:00 17,4 9,9 7 4 21 11 SSE 1005,3 50 0,0
14.10.2018 17:00:00 19,5 10,0 7 4 31 17 S 1005,1 50 0,0
14.10.2018 16:00:00 21,1 10,0 13 7 39 21 S 1005,5 48 0,0
14.10.2018 15:00:00 21,6 10,5 14 7 34 18 S 1006,0 49 0,0
14.10.2018 14:00:00 21,0 11,6 16 8 37 20 SSW 1006,7 37 0,0
14.10.2018 13:00:00 20,5 12,0 19 10 38 21 SSW 1007,2 45 0,0
14.10.2018 12:00:00 19,9 12,9 15 8 42 23 SSW 1007,4 35 0,0
14.10.2018 11:00:00 18,9 13,1 16 8 31 17 SSW 1007,8 43 0,0
14.10.2018 10:00:00 18,0 12,7 10 6 27 15 S 1007,9 38 0,0
14.10.2018 09:00:00 16,4 12,2 10 6 25 14 S 1008,0 47 0,0
14.10.2018 08:00:00 15,6 11,6 9 5 24 13 S 1007,9 50 0,0
14.10.2018 07:00:00 16,5 11,8 13 7 28 15 S 1007,9 49 0,0
14.10.2018 06:00:00 16,0 12,2 8 4 26 14 S 1008,1 50 0,0
14.10.2018 05:00:00 16,7 12,5 11 6 29 15 S 1007,9 50 0,0
14.10.2018 04:00:00 17,3 12,6 10 6 29 16 S 1008,0 50 0,0
14.10.2018 03:00:00 17,8 12,9 15 8 31 17 SSW 1008,1 50 0,0
14.10.2018 02:00:00 17,6 12,9 13 7 36 20 SSW 1008,2 50 0,0
14.10.2018 01:00:00 17,5 12,9 12 6 28 15 SSW 1008,3 50 0,0
14.10.2018 00:00:00 17,0 12,8 10 5 29 16 SSW 1008,1 50 0,0
13.10.2018 23:00:00 17,4 12,7 11 6 28 15 SSW 1008,0 50 0,0
13.10.2018 22:00:00 16,9 12,9 9 5 26 14 SSW 1008,5 50 0,0
13.10.2018 21:00:00 16,2 12,8 9 5 26 14 S 1008,6 48 0,0
13.10.2018 20:00:00 16,2 12,8 10 6 23 12 S 1009,0 50 0,0
13.10.2018 19:00:00 15,9 12,7 6 3 28 15 S 1009,4 39 0,0
13.10.2018 18:00:00 16,1 12,7 11 6 27 14 SSW 1009,4 45 0,0
13.10.2018 17:00:00 15,6 12,5 8 4 25 14 S 1009,3 41 0,0
13.10.2018 16:00:00 15,4 12,0 9 5 22 12 SSE 1010,0 46 0,0
13.10.2018 15:00:00 15,1 11,5 8 4 21 12 S 1010,3 41 0,0
13.10.2018 14:00:00 15,0 11,0 7 4 27 14 SSE 1010,4 41 0,0
13.10.2018 13:00:00 14,6 10,6 10 6 29 16 S 1010,6 42 0,0
13.10.2018 12:00:00 14,6 10,2 11 6 23 12 SSW 1010,5 40 0,0
13.10.2018 11:00:00 12,9 9,6 8 4 25 14 S 1010,6 31 0,0

tt = Température de l'air
td = dewpoint
ff = Vitesse du vent
fx = gusts
dd = Direction du vent
ppp = reduced air pressure
vv = visibility
rr = Quantités de précipitations

stations d'obs. à proximité